This is the latest recevied weather packets stored in our database for station/object KC4JIR. If no packets are shown the sender has not sent any weather packets the latest 1 day(s).
| Time | Temp. | Humidity | Pressure | Rain* | Wind** | Luminosity | Snow |
|---|---|---|---|---|---|---|---|
| 1777995404 | 25° C | 59% | 1014.7 hPa | 0 mm | 1.79 m/s, 243° | 867 W/m² | - |
| 1777995101 | 23.89° C | 63% | 1014.8 hPa | 0 mm | 1.34 m/s, 241° | 908 W/m² | - |
| 1777994797 | 23.89° C | 62% | 1014.7 hPa | 0 mm | 1.34 m/s, 182° | 875 W/m² | - |
| 1777994493 | 23.89° C | 62% | 1014.8 hPa | 0 mm | 1.34 m/s, 182° | 875 W/m² | - |
| 1777994189 | 23.89° C | 63% | 1014.5 hPa | 0 mm | 0 m/s | 862 W/m² | - |
| 1777993886 | 23.89° C | 61% | 1014.6 hPa | 0 mm | 1.79 m/s, 260° | 834 W/m² | - |
| 1777993582 | 22.78° C | 66% | 1014.5 hPa | 0 mm | 0.45 m/s, 207° | 816 W/m² | - |
| 1777993279 | 22.78° C | 66% | 1014.7 hPa | 0 mm | 0.45 m/s, 207° | 816 W/m² | - |
| 1777992975 | 22.78° C | 67% | 1014.7 hPa | 0 mm | 1.34 m/s, 179° | 751 W/m² | - |
| 1777992674 | 22.22° C | 67% | 1014.8 hPa | 0 mm | 0.89 m/s, 148° | 747 W/m² | - |
| 1777992371 | 22.22° C | 68% | 1015 hPa | 0 mm | 0.45 m/s, 247° | 739 W/m² | - |
| 1777992068 | 21.67° C | 67% | 1014.8 hPa | 0 mm | 1.34 m/s, 194° | 734 W/m² | - |
| 1777991766 | 21.67° C | 67% | 1014.8 hPa | 0 mm | 1.79 m/s, 267° | 683 W/m² | - |
| 1777991463 | 21.67° C | 69% | 1014.7 hPa | 0 mm | 0.45 m/s, 243° | 523 W/m² | - |
| 1777991160 | 21.11° C | 70% | 1014.5 hPa | 0 mm | 0.89 m/s, 224° | 95 W/m² | - |
| 1777990857 | 21.11° C | 71% | 1014.8 hPa | 0 mm | 0 m/s | 62 W/m² | - |
| 1777990554 | 20.56° C | 73% | 1014.6 hPa | 0 mm | 0 m/s | 238 W/m² | - |
| 1777990251 | 20.56° C | 77% | 1014.4 hPa | 0 mm | 0 m/s | 62 W/m² | - |
| 1777989948 | 20° C | 76% | 1014.5 hPa | 0 mm | 0.45 m/s, 206° | 131 W/m² | - |
| 1777989644 | 20° C | 76% | 1014.2 hPa | 0 mm | 0 m/s | 111 W/m² | - |
| 1777989341 | 20° C | 77% | 1014.4 hPa | 0 mm | 0.45 m/s, 248° | 142 W/m² | - |
| 1777989037 | 18.89° C | 85% | 1014.6 hPa | 0 mm | 0 m/s | 263 W/m² | - |
| 1777988733 | 18.33° C | 83% | 1014.4 hPa | 0 mm | 0 m/s | 176 W/m² | - |
| 1777988431 | 18.33° C | 83% | 1013.9 hPa | 0 mm | 0 m/s | 176 W/m² | - |
| 1777988127 | 18.33° C | 85% | 1014.4 hPa | 0 mm | 0.45 m/s, 195° | 105 W/m² | - |
* Rain latest hour (hover to see other rain measurements)
** Current wind speed in m/s (hover to see current wind gust speed)